Wetbulb
55.28 54.79 54.16 54.20 54.68 54.00 53.06 52.38 50.58 46.64 47.73 50.30 50.88 52.25 53.23 53.42 53.38 53.24 52.92 53.27 55.39 56.78 57.48 57.40 57.08 57.20 57.57 58.10 58.46 58.53 58.33 58.00 57.89 58.20 57.76 56.79 56.21 55.96
55.73 54.75 54.29 54.41 54.82 54.57 53.67 53.41 52.07 50.32 48.01 50.83 51.19 51.74 52.55 53.66 53.08 53.24 53.01 51.20 53.36 55.55 56.24 55.62 55.62 55.79 56.04 56.28 56.52 56.91 57.29 57.73 57.89 57.79 58.74 58.17 57.73 57.10
55.81 55.54 55.11 54.89 54.51 54.46 53.97 53.43 52.67 51.78 49.76 50.72 51.69 51.90 51.33 51.93 52.28 51.93 52.12 51.97 51.68 53.05 54.76 55.45 55.17 54.97 55.11 55.12 55.20 55.53 55.92 56.68 57.30 57.73 58.05 58.55 59.05 58.68
55.80 55.50 55.35 55.51 54.52 54.65 54.54 53.97 53.56 52.86 52.24 50.92 51.22 51.34 50.95 50.84 51.08 50.72 51.97 52.68 51.43 52.44 53.63 53.91 54.17 54.31 54.45 54.41 54.09 54.10 53.92 54.20 54.60 55.56 56.56 57.37 57.79 58.50
56.37 55.86 55.68 55.12 54.15 53.41 53.01 53.28 52.92 52.94 51.73 51.28 50.92 50.30 50.46 49.63 49.41 49.47 50.05 50.07 51.32 50.98 52.96 53.24 53.66 53.76 53.80 53.85 53.56 53.17 52.48 52.38 52.69 52.98 53.45 54.34 55.67 56.69
56.54 56.85 56.48 55.72 55.44 54.17 53.88 53.32 52.67 51.70 50.50 50.26 49.46 49.30 49.51 48.82 48.73 49.05 48.94 48.95 49.83 51.40 51.54 51.50 51.98 51.85 52.49 53.18 52.38 50.88 50.23 50.64 51.68 52.31 52.34 52.01 52.07 53.48
56.43 56.57 56.79 55.03 52.09 54.46 55.43 53.56 52.48 51.57 49.69 49.41 49.00 49.78 50.41 48.85 48.41 48.65 48.48 47.71 48.90 49.91 48.92 48.45 48.63 48.51 49.52 50.60 49.19 49.00 49.48 50.43 50.99 51.50 51.85 52.05 51.76 52.01
55.70 56.36 56.61 50.43 51.74 51.86 52.35 52.12 54.29 52.67 51.34 50.43 50.66 51.38 51.46 51.28 48.52 48.49 47.69 46.71 46.81 47.66 47.19 46.73 47.26 48.10 48.47 48.71 50.09 50.08 50.21 50.46 50.51 50.60 50.63 50.84 50.77 50.88
56.04 55.95 55.90 55.40 52.76 54.47 51.70 51.04 51.22 51.26 52.08 53.54 50.05 50.27 50.00 49.77 48.88 47.21 46.83 46.38 46.67 46.56 46.47 45.40 45.63 47.08 48.67 49.19 49.51 49.58 49.74 49.61 49.50 49.54 49.54 49.65 49.76 49.97
56.47 56.49 56.21 55.60 54.92 55.14 55.03 53.92 53.14 52.15 51.71 53.57 53.06 52.97 52.40 51.42 51.20 50.22 48.59 46.72 45.39 45.43 46.65 45.55 45.36 46.15 46.53 47.60 48.80 49.11 48.88 48.71 48.56 48.79 48.93 48.83 48.39 48.50
57.67 57.72 56.94 56.44 53.20 51.53 55.33 54.37 53.59 53.09 50.57 49.86 50.35 50.30 49.74 49.79 50.90 48.86 45.86 45.58 44.28 45.10 45.49 46.27 44.82 44.32 44.58 46.03 45.01 47.33 47.47 47.57 47.76 48.19 48.50 48.15 47.60 47.56
57.75 57.61 51.78 56.80 51.12 51.16 55.98 54.81 52.64 52.36 51.34 50.09 49.49 48.93 48.37 49.26 48.13 52.46 48.86 46.22 43.32 41.96 45.97 46.25 43.01 43.60 40.94 43.68 43.08 44.50 44.62 47.06 47.16 47.38 47.63 47.58 47.22 44.76
43.02 42.54 43.49 48.40 50.01 50.54 52.39 53.80 52.97 51.31 50.19 51.39 49.85 50.59 50.21 50.00 49.47 49.72 49.92 49.93 45.71 46.78 47.05 46.06 40.74 42.00 39.80 44.58 44.90 46.01 43.90 43.95 44.02 45.40 46.81 46.69 46.80 46.48
37.31 38.98 40.91 43.11 45.56 46.68 49.92 49.51 47.48 49.67 51.39 50.79 49.90 49.78 49.61 49.88 50.21 50.35 50.44 50.09 50.34 49.52 48.80 48.60 39.90 45.56 41.01 36.42 40.94 45.56 42.82 42.96 44.04 43.36 43.52 45.57 46.26 46.85
36.79 38.85 40.82 42.35 43.40 44.61 45.67 46.61 47.95 50.62 49.97 48.66 48.87 49.03 48.94 49.44 47.80 47.55 47.48 47.34 47.34 47.93 48.49 48.60 45.07 44.87 42.77 39.65 38.27 39.11 41.10 42.16 41.76 41.52 41.00 42.06 44.55 45.13
35.29 36.90 38.54 40.24 42.00 42.47 43.00 43.87 45.31 46.67 46.79 46.58 46.16 46.09 44.29 43.44 41.75 40.85 37.80 37.69 38.62 39.20 42.12 45.38 46.85 44.53 38.31 43.10 41.12 42.41 42.34 38.69 40.03 41.36 42.35 42.58 41.98 43.39
33.74 34.92 35.24 36.48 36.84 37.13 36.67 36.77 37.57 38.13 38.03 39.16 39.11 37.69 36.47 35.94 33.87 35.38 34.07 33.94 35.46 35.45 36.66 35.45 39.11 40.34 40.47 41.21 36.31 40.00 41.67 38.40 42.87 41.58 37.18 40.81 43.02 43.24
32.28 31.24 31.21 31.86 32.14 32.38 32.55 32.18 31.95 32.55 32.91 33.97 33.93 33.83 33.07 33.26 33.37 32.84 33.04 33.33 33.38 33.40 33.74 34.05 34.38 34.92 34.71 36.73 41.57 39.10 36.90 39.00 41.07 39.53 35.68 35.59 39.30 43.08
27.00 26.65 26.21 26.59 27.07 28.25 29.00 28.70 27.93 29.57 30.51 30.25 30.38 30.74 31.66 32.14 32.24 32.27 32.39 32.55 32.44 32.75 32.97 33.18 33.27 32.95 32.65 33.16 35.45 40.83 37.09 34.76 35.12 35.58 36.08 37.46 37.92 39.84
24.49 23.80 23.52 24.41 25.16 25.60 26.25 26.13 26.19 26.60 26.72 27.54 27.97 28.68 29.10 29.67 30.51 31.20 31.76 31.72 31.93 32.23 32.39 32.66 32.73 32.96 32.38 32.47 32.46 34.36 38.14 37.22 36.85 37.22 37.62 39.15 40.40 40.81
23.03 22.35 23.04 23.23 23.45 24.40 24.03 23.86 24.00 24.23 24.37 24.94 25.04 25.36 26.13 27.41 28.42 29.32 29.39 30.25 30.53 30.32 29.69 30.75 32.57 34.46 33.21 33.18 31.45 32.67 33.91 37.45 38.07 37.29 36.44 35.72 35.69 36.74
20.20 20.96 21.35 21.99 22.32 22.19 21.91 21.46 21.12 21.35 21.37 21.43 22.04 22.49 23.28 24.45 24.88 25.72 26.82 26.50 27.01 27.14 27.46 29.13 29.85 30.01 29.75 29.48 28.09 29.58 31.66 34.11 36.49 37.86 37.50 36.93 34.26 32.67
17.64 18.22 19.00 19.61 19.82 19.49 19.88 18.88 18.20 18.71 18.91 18.39 18.87 19.82 20.70 21.13 22.80 23.24 24.70 25.02 25.14 23.89 23.85 21.51 23.50 24.40 25.48 26.12 26.45 26.23 27.23 28.56 30.13 31.28 33.28 37.35 37.53 37.40
MSLP
1022.60 1023.05 1023.42 1023.72 1023.97 1024.13 1024.21 1024.60 1025.37 1026.69 1026.97 1026.67 1026.59 1026.49 1026.72 1026.86 1026.97 1027.23 1027.43 1027.51 1027.58 1027.61 1027.70 1027.76 1027.91 1028.01 1028.09 1028.18 1028.19 1028.31 1028.34 1028.28 1028.29 1028.33 1028.39 1028.43 1028.52 1028.58
1022.14 1022.67 1023.10 1023.46 1023.76 1024.02 1024.19 1024.39 1024.63 1025.41 1026.35 1026.25 1026.40 1026.32 1026.55 1026.75 1026.83 1027.06 1027.26 1027.42 1027.50 1027.52 1027.51 1027.63 1027.75 1027.79 1027.87 1027.94 1028.02 1028.07 1028.19 1028.17 1028.17 1028.17 1028.13 1028.17 1028.22 1028.29
1021.58 1022.15 1022.67 1023.05 1023.51 1023.85 1024.15 1024.33 1024.61 1024.86 1025.58 1026.10 1026.18 1026.21 1026.46 1026.74 1026.92 1027.07 1027.17 1027.39 1027.45 1027.41 1027.41 1027.45 1027.51 1027.60 1027.64 1027.60 1027.67 1027.75 1027.91 1027.95 1027.88 1027.94 1027.93 1027.90 1027.91 1027.94
1020.79 1021.52 1022.04 1022.65 1023.13 1023.49 1023.78 1024.08 1024.39 1024.63 1025.05 1025.77 1026.06 1026.23 1026.39 1026.57 1026.82 1027.05 1027.21 1027.18 1027.27 1027.24 1027.23 1027.31 1027.36 1027.36 1027.30 1027.34 1027.41 1027.45 1027.60 1027.67 1027.66 1027.61 1027.59 1027.53 1027.52 1027.56
1020.04 1020.67 1021.26 1022.04 1022.70 1023.14 1023.47 1023.80 1024.12 1024.57 1024.84 1025.31 1025.83 1026.06 1026.30 1026.52 1026.86 1026.96 1026.99 1027.08 1027.03 1027.02 1026.98 1026.94 1026.95 1027.03 1026.98 1027.05 1027.11 1027.13 1027.28 1027.34 1027.34 1027.34 1027.29 1027.27 1027.21 1027.17
1019.14 1019.70 1020.40 1021.05 1021.67 1022.32 1022.89 1023.25 1023.78 1024.45 1024.91 1025.24 1025.55 1025.86 1026.12 1026.42 1026.62 1026.91 1027.11 1027.10 1026.93 1026.80 1026.74 1026.72 1026.68 1026.73 1026.74 1026.81 1026.88 1026.88 1027.00 1027.08 1027.09 1027.05 1026.98 1026.93 1026.86 1026.79
1018.44 1018.93 1019.48 1020.04 1020.68 1021.18 1021.92 1022.59 1023.23 1023.96 1024.51 1024.98 1025.32 1025.65 1025.98 1026.30 1026.36 1026.45 1026.80 1026.91 1026.69 1026.64 1026.72 1026.69 1026.74 1026.65 1026.64 1026.67 1026.76 1026.73 1026.72 1026.77 1026.74 1026.65 1026.54 1026.45 1026.43 1026.42
1017.65 1018.18 1018.69 1019.33 1019.92 1020.49 1020.87 1021.46 1022.12 1022.87 1023.63 1024.19 1024.55 1024.92 1025.21 1025.51 1025.78 1026.09 1026.48 1026.81 1026.88 1026.41 1026.65 1026.73 1026.79 1026.53 1026.56 1026.51 1026.44 1026.41 1026.34 1026.27 1026.26 1026.19 1026.07 1025.99 1025.95 1025.95
1016.63 1017.32 1018.01 1018.50 1019.13 1019.88 1020.51 1020.96 1021.46 1021.84 1021.99 1022.76 1023.42 1023.75 1024.06 1024.52 1025.03 1025.76 1026.04 1026.23 1026.27 1026.36 1026.49 1026.78 1026.76 1026.45 1026.10 1026.01 1025.97 1025.97 1025.85 1025.84 1025.85 1025.77 1025.64 1025.59 1025.58 1025.49
1015.64 1016.25 1016.81 1017.59 1018.21 1018.99 1019.77 1020.42 1020.97 1021.40 1021.51 1021.62 1022.29 1022.64 1022.90 1023.41 1024.01 1024.37 1024.99 1025.75 1026.18 1026.19 1026.15 1026.71 1026.32 1026.22 1025.81 1025.52 1025.35 1025.47 1025.49 1025.52 1025.44 1025.35 1025.29 1025.25 1025.20 1025.08
1014.85 1015.36 1015.83 1016.56 1017.10 1017.84 1018.74 1019.44 1020.05 1020.60 1020.79 1021.01 1021.44 1021.87 1022.45 1022.78 1023.27 1024.13 1024.97 1025.59 1026.16 1026.09 1026.08 1026.22 1026.12 1026.14 1025.97 1025.46 1025.36 1025.25 1025.24 1025.28 1025.30 1025.18 1025.03 1024.98 1024.96 1024.83
1013.75 1014.45 1014.83 1015.18 1015.99 1016.45 1017.15 1017.92 1019.10 1019.66 1020.37 1021.04 1021.41 1022.04 1022.19 1022.60 1022.96 1022.84 1023.69 1024.57 1025.28 1025.85 1025.39 1025.81 1025.90 1026.06 1026.36 1025.65 1025.33 1025.00 1025.05 1025.01 1025.07 1025.00 1024.89 1024.85 1024.76 1024.70
1014.59 1015.42 1015.27 1015.13 1015.29 1015.59 1015.72 1016.40 1017.79 1018.42 1019.70 1020.29 1021.03 1021.47 1021.94 1022.26 1022.72 1023.06 1023.09 1023.23 1023.93 1024.34 1024.53 1024.90 1025.50 1025.76 1025.94 1025.71 1025.30 1024.83 1024.74 1024.82 1024.76 1024.52 1024.45 1024.41 1024.26 1024.31
1015.74 1016.69 1016.15 1015.32 1015.27 1016.76 1014.54 1016.53 1016.85 1017.68 1019.01 1019.93 1020.64 1021.00 1021.43 1021.60 1022.00 1022.33 1022.63 1022.86 1023.01 1023.21 1023.83 1024.26 1024.84 1024.97 1025.25 1025.46 1025.47 1024.76 1024.78 1024.74 1024.57 1024.15 1023.93 1023.77 1023.79 1023.67
1016.72 1016.91 1017.13 1016.38 1016.42 1016.46 1016.83 1016.64 1016.95 1017.80 1018.69 1019.51 1020.27 1020.61 1020.66 1020.79 1021.31 1021.87 1022.34 1022.66 1023.03 1023.34 1023.49 1023.86 1024.14 1024.45 1024.75 1024.81 1024.80 1024.77 1024.62 1024.15 1023.98 1024.09 1023.94 1023.80 1023.41 1023.27
1017.97 1017.73 1017.80 1017.17 1016.85 1017.72 1018.17 1017.73 1017.94 1018.29 1018.41 1019.15 1020.17 1020.54 1020.98 1021.03 1021.43 1021.93 1022.34 1022.95 1023.36 1023.57 1023.47 1023.54 1023.79 1024.08 1024.37 1024.35 1024.34 1024.34 1024.35 1024.44 1023.80 1023.60 1023.55 1023.18 1023.05 1022.81
1018.80 1018.45 1018.55 1018.34 1018.54 1018.50 1019.02 1019.70 1019.50 1019.64 1019.43 1020.13 1020.42 1021.20 1021.86 1021.96 1022.39 1022.30 1022.75 1023.29 1023.82 1024.00 1024.06 1023.94 1023.75 1023.95 1024.15 1024.12 1024.14 1023.86 1023.69 1023.80 1023.59 1023.45 1023.44 1022.82 1022.33 1022.13
1019.47 1019.54 1020.01 1020.01 1019.96 1020.12 1020.38 1020.88 1021.19 1021.20 1021.39 1021.69 1021.90 1022.01 1022.70 1023.00 1023.04 1023.19 1023.26 1023.72 1024.14 1024.46 1024.49 1024.27 1023.68 1023.83 1023.99 1023.37 1023.22 1023.42 1023.41 1023.23 1023.02 1022.93 1022.99 1022.80 1022.11 1021.43
1021.16 1021.54 1021.89 1022.18 1022.11 1021.99 1021.96 1022.01 1022.14 1022.54 1022.77 1022.93 1023.04 1023.40 1023.68 1023.82 1023.60 1023.77 1023.87 1023.99 1024.21 1024.39 1024.57 1024.45 1024.18 1024.34 1024.42 1024.00 1023.32 1022.95 1023.26 1023.08 1022.89 1022.74 1022.53 1022.21 1021.54 1021.26
1022.65 1023.01 1023.29 1023.46 1023.35 1023.31 1023.34 1023.42 1023.63 1023.58 1023.63 1023.70 1023.92 1024.32 1024.57 1024.65 1024.46 1024.65 1024.54 1024.34 1024.15 1024.38 1024.52 1024.49 1024.57 1024.65 1024.74 1024.42 1023.94 1023.38 1023.05 1023.07 1022.94 1022.46 1022.03 1021.54 1020.79 1020.12
1023.91 1024.25 1024.53 1024.57 1024.48 1024.47 1024.61 1024.85 1024.97 1024.99 1024.99 1024.79 1024.66 1025.12 1025.51 1025.29 1025.30 1025.22 1025.04 1024.70 1024.56 1024.81 1024.82 1024.59 1024.50 1024.54 1024.67 1024.39 1023.75 1023.23 1022.76 1022.55 1022.44 1022.30 1021.75 1021.13 1020.35 1019.46
1025.00 1025.12 1025.39 1025.44 1025.39 1025.44 1025.44 1025.51 1025.90 1025.94 1026.00 1025.98 1025.84 1025.88 1025.90 1026.07 1026.08 1025.67 1025.20 1025.06 1025.08 1025.24 1025.20 1024.91 1024.65 1024.53 1024.43 1024.18 1023.56 1023.14 1022.76 1022.26 1021.78 1021.52 1021.33 1021.17 1020.64 1018.98
1026.17 1025.93 1025.98 1026.18 1026.29 1026.23 1026.18 1026.23 1026.57 1026.71 1026.74 1026.58 1026.44 1026.69 1026.68 1026.47 1026.55 1026.36 1025.81 1025.59 1025.53 1025.38 1025.48 1025.36 1024.95 1024.73 1024.50 1024.15 1023.80 1023.23 1022.74 1022.28 1021.68 1021.05 1020.39 1019.89 1019.40 1018.66
Wind_Speed
8 7 4 4 3 3 3 4 6 4 4 3 3 4 4 3 4 4 4 4 5 6 5 4 4 4 4 4 4 4 4 3 4 5 6 6 6 5
7 8 5 3 4 3 4 3 3 4 3 4 4 2 3 2 4 4 4 2 3 4 5 5 5 4 5 5 6 6 7 6 6 6 8 9 9 8
9 10 9 6 4 4 3 2 3 3 4 1 1 2 3 3 2 2 3 3 2 4 4 5 5 4 5 4 5 5 6 7 8 9 9 10 11 11
12 11 10 6 6 5 4 5 4 3 4 4 3 3 3 3 2 3 3 3 3 5 4 4 5 5 5 5 5 5 6 7 7 8 10 11 11 12
13 13 12 11 9 5 4 5 4 3 2 3 4 1 2 2 1 1 2 3 3 6 6 6 6 5 6 6 6 6 6 6 7 8 9 11 12 13
13 14 12 13 12 10 8 8 5 4 3 2 2 2 1 2 1 2 3 2 3 2 3 4 4 3 6 6 6 7 6 7 8 9 10 10 10 12
13 13 13 14 15 14 9 8 8 5 4 4 3 3 3 2 4 3 3 1 2 3 1 1 1 1 2 2 4 6 7 8 9 9 10 11 10 11
13 13 12 14 15 17 15 14 13 11 8 5 4 4 5 4 4 4 3 3 2 1 3 2 0 2 1 2 6 7 8 9 8 9 10 10 10 10
15 13 12 10 14 13 14 15 15 15 11 11 6 6 5 7 6 5 4 4 4 2 3 2 2 3 3 4 6 8 9 8 8 8 8 9 9 10
16 15 15 14 15 14 13 12 11 11 10 8 9 8 6 6 8 7 7 3 1 1 3 3 2 3 2 4 6 6 5 5 4 5 6 7 8 8
15 15 15 15 17 19 15 15 12 9 8 8 8 8 9 10 9 6 4 4 3 3 4 3 2 2 2 4 2 1 2 3 6 7 7 8 8 8
12 15 20 19 21 25 19 16 14 11 8 6 4 3 5 7 14 9 7 4 3 0 5 5 3 3 3 3 2 1 1 3 5 8 8 8 9 4
6 5 5 3 22 26 20 15 12 10 9 7 5 4 4 5 5 5 6 5 5 4 5 4 3 2 1 3 2 3 2 2 3 4 7 8 8 6
8 5 5 13 4 3 9 10 14 11 6 6 5 5 6 6 6 7 7 4 3 4 5 5 3 4 4 2 3 2 2 4 4 4 3 5 8 9
7 11 12 13 12 10 8 11 10 6 7 5 5 5 5 4 4 4 3 2 1 3 4 5 3 4 3 3 3 3 2 3 3 4 3 3 3 3
9 8 10 13 16 11 6 8 5 3 3 4 3 3 2 2 3 1 3 1 3 2 2 2 4 3 2 5 3 4 3 3 3 3 3 3 4 5
3 4 5 6 7 8 8 8 8 8 8 4 5 5 3 2 2 3 2 2 2 2 2 2 1 1 4 4 2 5 5 4 5 5 2 7 7 6
5 6 7 6 7 6 6 6 7 9 7 7 6 6 4 3 3 1 2 2 2 0 1 2 2 4 3 4 10 5 2 4 4 4 2 3 7 9
8 7 6 6 6 6 6 6 6 6 6 6 6 6 4 3 4 3 2 1 2 1 0 2 2 2 1 3 3 11 3 1 2 3 3 4 7 8
7 7 6 6 6 6 6 6 5 5 5 5 6 5 4 4 3 2 2 1 2 1 1 0 1 1 2 3 4 2 7 7 5 8 7 7 9 14
6 6 5 5 5 5 6 6 6 5 5 4 5 4 4 4 2 2 2 5 5 1 1 1 1 10 4 5 4 4 2 11 11 9 7 8 9 9
6 6 5 5 5 5 5 5 4 5 5 5 5 4 4 3 3 4 3 3 3 3 3 3 4 4 3 4 8 10 7 5 8 14 14 15 9 10
5 5 5 5 5 5 5 5 5 4 5 4 3 3 4 3 4 4 4 4 2 1 2 2 3 2 4 6 11 8 13 11 10 10 10 14 20 23
Wind_Direction
193 188 176 197 198 189 155 147 143 149 223 231 187 199 196 181 188 174 192 224 220 217 228 237 247 254 257 264 273 288 293 305 310 283 253 238 250 264
187 180 177 176 192 188 176 156 134 139 169 181 222 174 182 185 178 172 192 201 231 231 223 225 230 236 246 254 264 268 271 271 271 272 263 260 256 255
185 188 192 170 182 181 170 149 153 139 130 205 202 185 152 174 174 194 186 206 233 257 252 236 226 232 240 244 252 264 270 267 265 268 268 267 264 260
187 184 193 177 184 181 176 179 174 167 132 164 180 183 180 189 185 189 217 223 229 253 250 260 261 243 241 240 245 250 260 266 271 269 266 263 262 263
185 186 188 177 188 177 182 181 169 158 147 141 181 141 151 139 159 200 215 243 242 245 238 229 234 243 249 238 234 238 247 254 258 264 264 263 260 258
191 193 184 186 189 184 185 186 172 163 158 145 152 153 145 149 144 179 236 223 253 251 243 245 238 229 247 252 251 253 257 263 266 267 269 267 261 259
196 192 190 191 186 184 179 183 169 169 161 168 165 152 166 163 190 181 201 185 264 219 227 257 261 200 272 312 286 274 263 267 269 267 273 269 264 263
196 197 195 187 189 183 186 178 180 176 182 175 180 183 179 187 174 179 164 152 245 160 163 273 191 241 234 266 258 266 276 273 277 273 277 271 265 265
201 197 197 192 186 188 192 180 185 189 171 179 176 191 181 188 154 172 187 175 198 210 125 241 202 258 235 259 252 256 267 270 267 283 286 286 284 276
201 197 194 194 189 185 182 186 195 196 189 172 186 198 199 172 175 179 176 165 60 185 168 197 186 244 287 271 255 271 302 308 288 296 298 300 299 293
207 202 196 197 189 178 182 188 188 197 185 172 175 179 188 174 166 131 151 132 211 229 199 169 217 247 289 284 6 331 331 312 309 302 297 301 302 298
204 213 204 203 185 179 185 177 184 190 164 152 140 175 189 184 171 183 159 165 135 279 216 185 170 158 323 271 301 277 284 290 303 302 312 316 307 292
77 51 33 297 186 183 176 165 184 149 165 161 166 168 167 167 187 208 185 161 157 208 189 152 174 151 163 270 286 277 197 244 249 257 269 281 278 259
67 29 36 49 96 213 118 155 146 135 144 163 177 185 193 186 194 199 198 196 185 178 153 174 182 181 178 184 243 290 252 248 254 265 244 262 269 262
58 51 38 59 56 59 96 124 130 139 153 152 177 192 195 182 145 142 139 126 175 236 192 191 185 188 183 202 208 222 264 272 226 253 262 254 272 232
39 50 46 56 63 66 22 40 47 97 123 122 112 90 62 82 97 49 110 122 132 279 292 234 260 190 219 234 202 242 214 258 292 269 252 267 272 237
7 60 43 51 65 51 51 34 42 30 53 47 88 86 47 49 59 30 51 60 129 171 300 336 62 294 254 237 248 227 237 227 250 271 270 290 284 274
37 43 38 34 49 59 67 61 41 44 39 39 41 57 51 47 80 69 88 103 100 28 304 301 11 17 347 277 214 250 243 250 255 255 234 266 290 296
53 50 51 40 38 39 44 55 68 50 44 47 51 41 28 24 36 49 72 94 119 126 259 318 42 94 251 246 282 218 244 301 321 305 233 245 277 279
50 48 47 41 41 40 44 43 40 42 47 48 48 37 29 10 8 16 20 87 96 91 34 65 30 307 304 312 315 285 243 271 274 282 283 279 272 272
46 55 46 42 44 46 51 45 37 35 30 40 55 45 17 9 6 2 360 11 12 41 308 325 85 320 284 269 261 277 265 247 250 272 284 286 290 287
45 50 42 38 38 44 54 52 47 47 49 35 27 33 32 6 353 355 12 23 23 5 328 334 336 319 301 291 299 302 296 283 258 261 253 249 270 276
33 43 45 40 35 34 37 48 40 29 34 39 49 25 8 10 4 345 351 11 337 21 345 308 325 318 313 309 304 304 305 309 310 300 286 260 253 257